Time,TemperatureF,DewpointF,PressureIn,WindDirection,WindDirectionDegrees,WindSpeedMPH,WindSpeedGustMPH,Humidity,HourlyPrecipIn,Conditions,Clouds,dailyrainin,SoftwareType,DateUTC
2013-09-23 00:09:00,70.9,58.0,29.32,SE,132,1.0,9.0,65,0.00,,,0.00,weatherlink.com 1.10,2013-09-23 05:09:00,
2013-09-23 00:24:00,71.2,58.0,29.32,SSW,193,2.0,8.0,63,0.00,,,0.00,weatherlink.com 1.10,2013-09-23 05:24:00,
2013-09-23 00:39:00,71.6,57.0,29.32,SSE,149,6.0,10.0,61,0.00,,,0.00,weatherlink.com 1.10,2013-09-23 05:39:00,
2013-09-23 00:54:00,71.6,57.0,29.32,SE,139,2.0,9.0,61,0.00,,,0.00,weatherlink.com 1.10,2013-09-23 05:54:00,
2013-09-23 01:09:00,71.2,57.0,29.33,South,176,4.0,10.0,61,0.00,,,0.00,weatherlink.com 1.10,2013-09-23 06:09:00,
2013-09-23 01:24:00,70.9,57.0,29.33,South,177,2.0,10.0,62,0.00,,,0.00,weatherlink.com 1.10,2013-09-23 06:24:00,
2013-09-23 01:39:00,70.7,57.0,29.32,SSE,158,8.0,11.0,62,0.00,,,0.00,weatherlink.com 1.10,2013-09-23 06:39:00,
2013-09-23 01:54:00,70.0,57.0,29.35,SW,225,8.0,13.0,64,0.00,,,0.00,weatherlink.com 1.10,2013-09-23 06:54:00,
2013-09-23 02:09:00,69.9,58.0,29.36,South,169,4.0,12.0,65,0.00,,,0.00,weatherlink.com 1.10,2013-09-23 07:09:00,
2013-09-23 02:25:00,69.6,58.0,29.35,SW,225,5.0,11.0,66,0.00,,,0.00,weatherlink.com 1.10,2013-09-23 07:25:00,
2013-09-23 02:40:00,69.1,58.0,29.32,WNW,300,1.0,7.0,68,0.00,,,0.00,weatherlink.com 1.10,2013-09-23 07:40:00,
2013-09-23 02:55:00,68.0,58.0,29.35,SSE,147,1.0,3.0,71,0.00,,,0.00,weatherlink.com 1.10,2013-09-23 07:55:00,
2013-09-23 03:10:00,66.9,59.0,29.35,SE,127,1.0,3.0,75,0.00,,,0.00,weatherlink.com 1.10,2013-09-23 08:10:00,
2013-09-23 03:25:00,66.4,59.0,29.36,SSW,197,3.0,6.0,76,0.00,,,0.00,weatherlink.com 1.10,2013-09-23 08:25:00,
2013-09-23 03:40:00,65.8,58.0,29.38,South,187,5.0,11.0,77,0.00,,,0.00,weatherlink.com 1.10,2013-09-23 08:40:00,
2013-09-23 03:55:00,65.4,58.0,29.39,West,262,2.0,9.0,78,0.00,,,0.00,weatherlink.com 1.10,2013-09-23 08:55:00,
2013-09-23 04:10:00,65.2,59.0,29.39,West,280,3.0,7.0,79,0.00,,,0.00,weatherlink.com 1.10,2013-09-23 09:10:00,
2013-09-23 04:25:00,63.9,59.0,29.32,West,270,2.0,7.0,85,0.00,,,0.00,weatherlink.com 1.10,2013-09-23 09:25:00,
2013-09-23 04:40:00,63.9,60.0,29.38,SW,222,2.0,4.0,86,0.01,,,0.01,weatherlink.com 1.10,2013-09-23 09:40:00,
2013-09-23 04:55:00,63.0,59.0,29.35,SE,145,1.0,2.0,88,0.03,,,0.03,weatherlink.com 1.10,2013-09-23 09:55:00,
2013-09-23 05:10:00,62.0,59.0,29.35,SE,140,1.0,2.0,90,0.03,,,0.03,weatherlink.com 1.10,2013-09-23 10:10:00,
2013-09-23 05:25:00,62.1,59.0,29.37,West,278,1.0,3.0,90,0.03,,,0.03,weatherlink.com 1.10,2013-09-23 10:25:00,
2013-09-23 05:40:00,62.0,59.0,29.38,WSW,257,1.0,4.0,91,0.02,,,0.03,weatherlink.com 1.10,2013-09-23 10:40:00,
2013-09-23 05:55:00,61.8,59.0,29.38,WSW,239,1.0,5.0,90,0.00,,,0.03,weatherlink.com 1.10,2013-09-23 10:55:00,
2013-09-23 06:10:00,61.8,59.0,29.36,NNW,341,0.0,2.0,90,0.00,,,0.03,weatherlink.com 1.10,2013-09-23 11:10:00,
2013-09-23 06:25:00,61.3,59.0,29.36,North,355,1.0,3.0,91,0.00,,,0.03,weatherlink.com 1.10,2013-09-23 11:25:00,
2013-09-23 06:40:00,61.9,59.0,29.38,West,272,0.0,3.0,91,0.00,,,0.03,weatherlink.com 1.10,2013-09-23 11:40:00,
2013-09-23 06:55:00,61.5,59.0,29.38,WNW,290,0.0,1.0,91,0.00,,,0.03,weatherlink.com 1.10,2013-09-23 11:55:00,
2013-09-23 07:10:00,60.8,59.0,29.38,NE,54,1.0,2.0,92,0.00,,,0.03,weatherlink.com 1.10,2013-09-23 12:10:00,
2013-09-23 07:25:00,60.0,58.0,29.40,NE,53,0.0,0.0,93,0.00,,,0.03,weatherlink.com 1.10,2013-09-23 12:25:00,
2013-09-23 07:40:00,60.0,58.0,29.40,NNE,18,0.0,1.0,94,0.00,,,0.03,weatherlink.com 1.10,2013-09-23 12:40:00,
2013-09-23 07:55:00,59.8,58.0,29.40,NNE,20,0.0,0.0,94,0.00,,,0.03,weatherlink.com 1.10,2013-09-23 12:55:00,
2013-09-23 08:10:00,59.7,58.0,29.41,NNE,18,0.0,2.0,94,0.00,,,0.03,weatherlink.com 1.10,2013-09-23 13:10:00,
2013-09-23 08:25:00,60.3,58.0,29.41,North,351,1.0,3.0,93,0.00,,,0.03,weatherlink.com 1.10,2013-09-23 13:25:00,
2013-09-23 08:40:00,60.9,58.0,29.40,North,359,1.0,4.0,91,0.00,,,0.03,weatherlink.com 1.10,2013-09-23 13:40:00,
2013-09-23 08:55:00,61.2,58.0,29.41,NW,308,1.0,4.0,90,0.00,,,0.03,weatherlink.com 1.10,2013-09-23 13:55:00,
2013-09-23 09:10:00,61.4,59.0,29.41,NNW,342,3.0,4.0,90,0.00,,,0.03,weatherlink.com 1.10,2013-09-23 14:10:00,
2013-09-23 09:25:00,61.5,58.0,29.41,North,5,3.0,4.0,89,0.00,,,0.03,weatherlink.com 1.10,2013-09-23 14:25:00,
2013-09-23 09:40:00,61.4,58.0,29.41,NNW,332,1.0,5.0,89,0.00,,,0.03,weatherlink.com 1.10,2013-09-23 14:40:00,
2013-09-23 09:55:00,61.4,58.0,29.42,NNE,16,2.0,5.0,89,0.00,,,0.03,weatherlink.com 1.10,2013-09-23 14:55:00,
2013-09-23 10:11:00,62.2,59.0,29.43,WNW,293,2.0,4.0,90,0.00,,,0.03,weatherlink.com 1.10,2013-09-23 15:11:00,
2013-09-23 10:26:00,61.3,58.0,29.44,WNW,284,1.0,7.0,89,0.00,,,0.03,weatherlink.com 1.10,2013-09-23 15:26:00,
2013-09-23 10:41:00,60.2,57.0,29.45,NE,38,2.0,9.0,89,0.00,,,0.03,weatherlink.com 1.10,2013-09-23 15:41:00,
2013-09-23 10:56:00,59.4,57.0,29.45,NE,34,2.0,7.0,90,0.00,,,0.03,weatherlink.com 1.10,2013-09-23 15:56:00,
2013-09-23 11:11:00,59.2,56.0,29.45,NW,320,3.0,9.0,90,0.00,,,0.03,weatherlink.com 1.10,2013-09-23 16:11:00,
2013-09-23 11:26:00,59.2,57.0,29.45,NNE,23,3.0,9.0,91,0.00,,,0.03,weatherlink.com 1.10,2013-09-23 16:26:00,
2013-09-23 11:41:00,59.5,57.0,29.44,NW,317,9.0,14.0,91,0.00,,,0.03,weatherlink.com 1.10,2013-09-23 16:41:00,
2013-09-23 11:56:00,59.6,57.0,29.45,NNE,18,5.0,12.0,90,0.00,,,0.03,weatherlink.com 1.10,2013-09-23 16:56:00,
2013-09-23 12:11:00,59.6,57.0,29.46,NNW,328,5.0,10.0,90,0.00,,,0.03,weatherlink.com 1.10,2013-09-23 17:11:00,
2013-09-23 12:26:00,59.4,57.0,29.46,NW,322,4.0,13.0,90,0.00,,,0.03,weatherlink.com 1.10,2013-09-23 17:26:00,
2013-09-23 12:41:00,59.1,56.0,29.45,NNE,23,7.0,14.0,90,0.00,,,0.03,weatherlink.com 1.10,2013-09-23 17:41:00,
2013-09-23 12:56:00,59.0,56.0,29.47,North,353,2.0,13.0,90,0.00,,,0.03,weatherlink.com 1.10,2013-09-23 17:56:00,
2013-09-23 13:11:00,59.0,56.0,29.46,NNW,336,4.0,13.0,91,0.00,,,0.03,weatherlink.com 1.10,2013-09-23 18:11:00,
2013-09-23 13:27:00,59.2,57.0,29.46,North,354,6.0,14.0,92,0.01,,,0.04,weatherlink.com 1.10,2013-09-23 18:27:00,
2013-09-23 13:41:00,59.1,57.0,29.48,WNW,295,4.0,16.0,92,0.01,,,0.04,weatherlink.com 1.10,2013-09-23 18:41:00,
2013-09-23 13:56:00,59.0,56.0,29.49,NNE,23,5.0,14.0,91,0.01,,,0.04,weatherlink.com 1.10,2013-09-23 18:56:00,
2013-09-23 14:11:00,58.8,56.0,29.49,NNW,345,3.0,14.0,90,0.01,,,0.04,weatherlink.com 1.10,2013-09-23 19:11:00,
2013-09-23 14:26:00,58.8,56.0,29.51,NNE,30,3.0,13.0,89,0.00,,,0.04,weatherlink.com 1.10,2013-09-23 19:26:00,
2013-09-23 14:41:00,57.9,55.0,29.51,NW,315,10.0,13.0,90,0.02,,,0.06,weatherlink.com 1.10,2013-09-23 19:41:00,
2013-09-23 14:56:00,57.2,55.0,29.51,NNW,347,7.0,20.0,91,0.03,,,0.07,weatherlink.com 1.10,2013-09-23 19:56:00,
2013-09-23 15:11:00,57.0,54.0,29.53,North,6,4.0,19.0,90,0.03,,,0.07,weatherlink.com 1.10,2013-09-23 20:11:00,
2013-09-23 15:26:00,56.7,54.0,29.55,NE,42,6.0,13.0,91,0.04,,,0.08,weatherlink.com 1.10,2013-09-23 20:26:00,
2013-09-23 15:41:00,56.6,54.0,29.56,North,1,5.0,10.0,91,0.02,,,0.08,weatherlink.com 1.10,2013-09-23 20:41:00,
2013-09-23 15:56:00,56.4,54.0,29.56,NNE,27,2.0,6.0,92,0.03,,,0.10,weatherlink.com 1.10,2013-09-23 20:56:00,
2013-09-23 16:11:00,56.2,54.0,29.57,NW,314,6.0,11.0,92,0.04,,,0.11,weatherlink.com 1.10,2013-09-23 21:11:00,
2013-09-23 16:26:00,56.3,54.0,29.57,NNE,19,3.0,11.0,93,0.04,,,0.12,weatherlink.com 1.10,2013-09-23 21:26:00,
2013-09-23 16:41:00,56.3,54.0,29.58,NNW,328,2.0,8.0,92,0.05,,,0.13,weatherlink.com 1.10,2013-09-23 21:41:00,
2013-09-23 16:56:00,56.5,54.0,29.58,NNW,334,9.0,13.0,91,0.04,,,0.14,weatherlink.com 1.10,2013-09-23 21:56:00,
2013-09-23 17:11:00,56.2,53.0,29.59,NE,42,6.0,12.0,89,0.03,,,0.14,weatherlink.com 1.10,2013-09-23 22:11:00,
2013-09-23 17:26:00,55.9,53.0,29.60,West,275,1.0,8.0,90,0.02,,,0.14,weatherlink.com 1.10,2013-09-23 22:26:00,
2013-09-23 17:41:00,55.5,52.0,29.60,North,9,8.0,11.0,89,0.02,,,0.15,weatherlink.com 1.10,2013-09-23 22:41:00,
2013-09-23 17:56:00,55.3,52.0,29.61,North,349,8.0,8.0,89,0.01,,,0.15,weatherlink.com 1.10,2013-09-23 22:56:00,
2013-09-23 18:11:00,55.3,52.0,29.63,NNW,328,3.0,5.0,89,0.01,,,0.15,weatherlink.com 1.10,2013-09-23 23:11:00,
2013-09-23 18:26:00,55.3,53.0,29.63,West,264,0.0,2.0,91,0.01,,,0.15,weatherlink.com 1.10,2013-09-23 23:26:00,
2013-09-23 18:41:00,55.1,53.0,29.64,ESE,121,0.0,1.0,91,0.01,,,0.16,weatherlink.com 1.10,2013-09-23 23:41:00,
2013-09-23 18:56:00,55.0,53.0,29.64,SW,236,1.0,1.0,93,0.02,,,0.17,weatherlink.com 1.10,2013-09-23 23:56:00,
2013-09-23 19:11:00,54.7,53.0,29.65,SW,235,0.0,0.0,93,0.02,,,0.17,weatherlink.com 1.10,2013-09-24 00:11:00,
2013-09-23 19:26:00,54.5,53.0,29.65,SW,233,0.0,1.0,93,0.02,,,0.17,weatherlink.com 1.10,2013-09-24 00:26:00,
2013-09-23 19:41:00,54.3,53.0,29.66,SSW,208,0.0,1.0,94,0.01,,,0.17,weatherlink.com 1.10,2013-09-24 00:41:00,
2013-09-23 19:56:00,54.1,53.0,29.66,SSW,195,0.0,2.0,94,0.00,,,0.17,weatherlink.com 1.10,2013-09-24 00:56:00,
2013-09-23 20:11:00,54.0,52.0,29.66,SW,226,1.0,4.0,94,0.00,,,0.17,weatherlink.com 1.10,2013-09-24 01:11:00,
2013-09-23 20:26:00,53.9,52.0,29.67,WSW,238,0.0,2.0,94,0.00,,,0.17,weatherlink.com 1.10,2013-09-24 01:26:00,
2013-09-23 20:41:00,53.8,52.0,29.68,SW,218,4.0,4.0,95,0.00,,,0.17,weatherlink.com 1.10,2013-09-24 01:41:00,
2013-09-23 20:56:00,53.7,52.0,29.68,South,184,1.0,4.0,94,0.00,,,0.17,weatherlink.com 1.10,2013-09-24 01:56:00,
2013-09-23 21:11:00,53.5,52.0,29.69,South,169,0.0,5.0,95,0.00,,,0.17,weatherlink.com 1.10,2013-09-24 02:11:00,
2013-09-23 21:26:00,53.2,52.0,29.69,SW,229,5.0,6.0,95,0.00,,,0.17,weatherlink.com 1.10,2013-09-24 02:26:00,
2013-09-23 21:41:00,53.1,52.0,29.70,SW,221,4.0,7.0,95,0.00,,,0.17,weatherlink.com 1.10,2013-09-24 02:41:00,
2013-09-23 21:56:00,53.0,52.0,29.70,SW,217,4.0,7.0,95,0.00,,,0.17,weatherlink.com 1.10,2013-09-24 02:56:00,
2013-09-23 22:12:00,52.9,52.0,29.71,SW,221,4.0,9.0,95,0.00,,,0.17,weatherlink.com 1.10,2013-09-24 03:12:00,
2013-09-23 22:27:00,52.7,52.0,29.71,SW,217,5.0,7.0,96,0.00,,,0.17,weatherlink.com 1.10,2013-09-24 03:27:00,
2013-09-23 22:42:00,52.6,52.0,29.71,SW,229,3.0,6.0,96,0.00,,,0.17,weatherlink.com 1.10,2013-09-24 03:42:00,
2013-09-23 22:57:00,52.3,51.0,29.72,SW,218,5.0,7.0,95,0.00,,,0.17,weatherlink.com 1.10,2013-09-24 03:57:00,
2013-09-23 23:12:00,52.0,51.0,29.73,SSW,210,2.0,7.0,95,0.00,,,0.17,weatherlink.com 1.10,2013-09-24 04:12:00,
2013-09-23 23:27:00,51.6,50.0,29.73,SW,217,2.0,5.0,95,0.00,,,0.17,weatherlink.com 1.10,2013-09-24 04:27:00,
2013-09-23 23:42:00,51.4,50.0,29.73,SSW,207,2.0,6.0,95,0.00,,,0.17,weatherlink.com 1.10,2013-09-24 04:42:00,
2013-09-23 23:57:00,51.2,50.0,29.74,SSW,210,3.0,7.0,95,0.00,,,0.17,weatherlink.com 1.10,2013-09-24 04:57:00,